{"data":{"norad_id":64158,"epoch":"2026-05-25T02:46:08.736096Z","epoch_age_seconds":64983,"freshness":"FRESH","line1":"1 64158U 25112N   26145.11537889  .00002075  00000+0  14782-3 0  9993","line2":"2 64158  97.4509 196.4184 0001952  69.7468 290.3968 15.05648181 54803","mean_motion":15.05648181,"eccentricity":0.0001952,"inclination_deg":97.4509,"raan_deg":196.4184,"arg_perigee_deg":69.7468,"mean_anomaly_deg":290.3968,"bstar":0.00014782,"rev_number":5480,"period_min":95.639872459687,"perigee_km":548.16445563808,"apogee_km":550.8690116557,"semimajor_km":6927.6537336469,"source":"CELESTRAK","updated_at":"2026-05-25T13:38:20.305074Z"}}